�N����,����,�~����,�C��,���x,�C��,����,���ϕ���,�ő�u�ԕ���,�ő厞����,���˗�,�I�_���x,�n�����x,�ő啗���N��,DTYPE
"17/10/02","00:10",0.0,18.4,92.6,1013.5,303.8,1.2,1.7,315.9,0.00,17.2,20.5,"00:04:40",1
"17/10/02","00:20",0.0,18.6,92.3,1014.0,314.5,1.3,2.0,320.2,0.00,17.4,20.4,"00:13:36",1
"17/10/02","00:30",0.0,18.6,91.8,1013.8,295.8,1.1,2.1,322.0,0.00,17.3,20.5,"00:20:24",1
"17/10/02","00:40",0.0,18.7,91.6,1013.8,289.1,1.0,1.3,303.6,0.00,17.3,20.6,"00:35:04",1
"17/10/02","00:50",0.0,18.5,91.3,1013.8,311.7,1.1,1.7,320.6,0.00,17.1,20.5,"00:44:40",1
"17/10/02","01:00",0.0,18.3,91.6,1013.8,313.0,1.1,1.6,323.8,0.00,16.9,20.4,"00:54:56",1
"17/10/02","01:10",0.0,18.2,92.0,1013.8,306.5,1.1,1.7,327.5,0.00,16.9,20.5,"01:08:24",1
"17/10/02","01:20",0.0,18.3,92.4,1013.5,308.6,1.2,1.9,324.2,0.00,17.1,20.5,"01:14:32",1
"17/10/02","01:30",0.0,18.4,92.3,1013.5,295.9,1.0,1.4,310.1,0.00,17.2,20.5,"01:20:48",1
"17/10/02","01:40",0.0,18.3,92.2,1013.3,312.0,1.1,1.7,323.0,0.00,17.1,20.3,"01:33:52",1
"17/10/02","01:50",0.0,18.3,92.4,1013.0,309.3,1.1,1.4,320.2,0.00,17.1,20.4,"01:42:00",1
"17/10/02","02:00",0.0,18.4,92.6,1013.0,319.9,1.3,1.9,333.1,0.00,17.2,20.5,"01:53:12",1
"17/10/02","02:10",0.0,18.4,92.8,1012.6,315.9,0.8,1.7,334.7,0.00,17.3,20.3,"02:03:20",1
"17/10/02","02:20",0.0,18.4,92.9,1012.8,303.4,1.2,1.8,316.6,0.00,17.3,20.5,"02:18:16",1
"17/10/02","02:30",0.0,18.5,92.8,1012.3,299.4,1.1,1.6,318.7,0.00,17.4,20.3,"02:29:36",1
"17/10/02","02:40",0.0,18.5,92.8,1012.3,309.2,1.1,1.4,301.6,0.00,17.4,20.3,"02:32:32",1
"17/10/02","02:50",0.0,18.5,92.7,1012.6,311.9,1.1,1.6,322.5,0.00,17.3,20.3,"02:44:08",1
"17/10/02","03:00",0.0,18.6,92.6,1012.3,297.8,1.2,1.6,301.5,0.00,17.4,20.2,"02:52:00",1
"17/10/02","03:10",0.0,18.7,92.5,1012.6,305.4,1.0,1.4,325.2,0.00,17.5,20.4,"03:02:16",1
"17/10/02","03:20",0.0,18.8,92.2,1012.3,309.9,0.8,1.4,321.8,0.00,17.5,20.4,"03:10:02",1
"17/10/02","03:30",0.0,18.6,92.2,1012.3,324.7,1.6,2.1,323.8,0.00,17.3,20.3,"03:23:04",1
"17/10/02","03:40",0.0,18.5,92.4,1012.1,313.4,1.0,1.4,320.2,0.00,17.3,20.4,"03:35:12",1
"17/10/02","03:50",0.0,18.5,92.8,1011.9,312.6,1.3,1.9,330.0,0.00,17.4,20.4,"03:42:48",1
"17/10/02","04:00",0.0,18.6,92.7,1011.9,308.1,1.2,2.1,321.5,0.00,17.4,20.5,"03:52:48",1
"17/10/02","04:10",0.0,18.8,92.4,1011.6,321.9,1.2,1.8,317.3,0.00,17.6,20.3,"04:07:12",1
"17/10/02","04:20",0.0,18.8,92.2,1011.6,310.7,0.8,1.9,335.8,0.00,17.5,20.5,"04:14:32",1
"17/10/02","04:30",0.0,18.9,92.2,1011.6,308.6,1.3,1.9,332.9,0.00,17.6,20.4,"04:24:08",1
"17/10/02","04:40",0.0,19.0,91.9,1011.4,317.8,1.2,1.9,323.5,0.00,17.7,20.3,"04:30:56",1
"17/10/02","04:50",0.0,19.1,91.7,1011.6,311.1,1.3,2.4,342.4,0.00,17.8,20.2,"04:48:56",1
"17/10/02","05:00",0.0,19.2,91.4,1011.6,314.1,1.0,1.7,325.4,0.00,17.8,20.2,"04:50:08",1
"17/10/02","05:10",0.0,19.1,91.3,1011.4,292.2,0.8,1.6,321.0,0.00,17.7,20.2,"05:00:16",1
"17/10/02","05:20",0.0,19.1,91.5,1011.6,296.7,1.1,1.4,306.1,0.00,17.7,20.5,"05:15:12",1
"17/10/02","05:30",0.0,19.2,91.7,1011.6,300.2,0.7,1.6,310.6,0.00,17.9,20.4,"05:20:08",1
"17/10/02","05:40",0.4,19.2,92.0,1011.4,312.0,1.0,1.8,333.6,0.00,17.9,20.4,"05:39:44",1
"17/10/02","05:50",0.2,19.3,92.4,1011.4,310.0,1.5,1.8,325.6,0.00,18.1,20.6,"05:40:40",1
"17/10/02","06:00",0.2,19.3,92.9,1011.2,293.3,1.0,1.4,326.6,0.00,18.2,20.2,"05:52:08",1
"17/10/02","06:10",0.0,19.3,93.3,1011.2,283.7,1.0,1.9,301.1,0.00,18.2,20.4,"06:08:00",1
"17/10/02","06:20",0.2,19.3,93.5,1011.4,284.0,0.8,1.3,308.5,0.00,18.3,20.4,"06:10:40",1
"17/10/02","06:30",0.4,19.4,93.8,1011.6,267.5,1.0,1.6,294.5,0.00,18.4,20.2,"06:28:40",1
"17/10/02","06:40",0.0,19.3,94.0,1011.6,277.1,0.8,1.4,243.2,0.00,18.4,20.4,"06:35:52",1
"17/10/02","06:50",0.2,19.4,94.1,1011.4,303.1,1.1,1.8,295.5,0.00,18.5,20.5,"06:40:16",1
"17/10/02","07:00",0.2,19.4,94.3,1011.4,278.7,0.8,1.3,302.7,0.00,18.5,20.4,"06:54:00",1
"17/10/02","07:10",0.0,19.5,94.5,1011.6,309.9,1.3,1.9,332.3,0.00,18.6,20.5,"07:01:04",1
"17/10/02","07:20",0.2,19.6,94.5,1010.9,282.1,1.0,1.8,312.9,0.01,18.7,20.2,"07:11:12",1
"17/10/02","07:30",0.0,19.7,94.6,1011.2,278.1,1.0,1.7,265.6,0.01,18.8,20.4,"07:20:24",1
"17/10/02","07:40",0.0,19.7,94.6,1010.9,270.3,1.1,1.7,231.7,0.00,18.8,20.5,"07:35:52",1
"17/10/02","07:50",0.2,19.7,94.6,1011.4,288.6,1.1,1.8,307.6,0.00,18.8,20.5,"07:41:04",1
"17/10/02","08:00",0.2,19.8,94.7,1011.6,321.9,1.1,1.7,335.0,0.00,19.0,20.5,"07:53:52",1
"17/10/02","08:10",0.0,19.9,94.8,1011.4,307.2,1.0,1.4,328.3,0.00,19.1,20.6,"08:03:12",1
"17/10/02","08:20",0.2,20.0,94.9,1011.2,283.9,0.6,1.0,301.4,0.01,19.2,20.3,"08:19:52",1
"17/10/02","08:30",0.2,20.0,94.9,1011.2,283.5,1.0,1.4,307.8,0.02,19.2,20.5,"08:25:52",1
"17/10/02","08:40",0.0,20.0,95.0,1011.6,292.5,0.8,1.4,324.4,0.01,19.2,20.6,"08:34:00",1
"17/10/02","08:50",0.2,20.1,94.9,1011.2,276.2,0.8,1.3,305.3,0.02,19.3,20.5,"08:44:16",1
"17/10/02","09:00",0.2,20.2,95.0,1011.4,297.4,1.0,1.9,330.7,0.02,19.4,20.7,"08:55:44",1
"17/10/02","09:10",0.2,20.3,95.1,1011.2,301.1,1.0,2.2,306.9,0.03,19.5,20.7,"09:05:36",1
"17/10/02","09:20",0.0,20.5,95.2,1011.4,290.3,0.7,1.1,289.9,0.05,19.7,20.7,"09:12:40",1
"17/10/02","09:30",0.2,20.6,94.7,1010.9,284.1,0.7,1.2,308.9,0.06,19.8,20.8,"09:21:28",1
"17/10/02","09:40",0.0,20.8,94.9,1010.7,289.3,0.5,1.0,337.9,0.06,20.0,20.7,"09:32:48",1
"17/10/02","09:50",0.2,21.0,94.4,1010.4,277.7,0.6,1.0,305.7,0.07,20.1,20.9,"09:45:20",1
"17/10/02","10:00",0.0,21.0,94.0,1010.4,289.1,0.7,1.1,248.6,0.06,20.0,20.7,"09:52:40",1
"17/10/02","10:10",0.0,21.2,94.1,1010.2,281.2,0.5,0.9,299.6,0.07,20.3,20.8,"10:09:04",1
"17/10/02","10:20",0.2,21.3,93.7,1009.7,305.7,0.7,1.2,329.1,0.07,20.3,20.8,"10:16:00",1
"17/10/02","10:30",0.0,21.3,93.5,1009.7,268.1,0.5,0.9,245.0,0.07,20.2,21.1,"10:22:40",1
"17/10/02","10:40",0.2,21.2,92.6,1009.7,308.8,0.5,1.4,352.8,0.06,20.0,21.0,"10:33:44",1
"17/10/02","10:50",0.2,21.1,92.5,1009.3,354.0,0.5,1.0,324.4,0.04,19.9,20.8,"10:49:36",1
"17/10/02","11:00",0.2,21.1,92.6,1009.5,292.4,0.6,1.1,321.1,0.03,19.9,21.0,"10:50:40",1
"17/10/02","11:10",0.4,21.0,92.7,1009.7,284.5,0.6,1.0,307.8,0.02,19.8,20.9,"11:04:00",1
"17/10/02","11:20",0.2,20.8,92.6,1009.5,282.0,0.6,1.1,236.3,0.02,19.6,20.9,"11:15:20",1
"17/10/02","11:30",0.4,20.6,93.0,1009.3,280.4,0.6,1.3,323.9,0.02,19.5,21.0,"11:28:56",1
"17/10/02","11:40",0.4,20.6,93.2,1009.0,309.0,0.6,1.1,319.3,0.04,19.5,21.0,"11:34:40",1
"17/10/02","11:50",0.4,20.8,93.5,1008.8,297.9,0.7,1.1,301.4,0.04,19.8,21.1,"11:43:44",1
"17/10/02","12:00",0.4,20.9,93.5,1008.6,270.0,0.6,1.1,329.8,0.06,19.9,21.0,"11:58:32",1
"17/10/02","12:10",0.2,20.9,93.6,1008.8,273.0,0.5,0.9,240.6,0.03,19.9,21.1,"12:04:24",1
"17/10/02","12:20",0.0,20.9,93.7,1008.3,276.6,0.6,1.1,243.9,0.04,19.9,21.1,"12:16:56",1
"17/10/02","12:30",0.2,20.9,93.6,1008.1,277.3,0.6,1.3,315.4,0.04,19.9,21.1,"12:27:44",1
"17/10/02","12:40",0.0,20.9,93.5,1008.1,292.9,0.5,1.0,318.1,0.04,19.9,21.1,"12:36:08",1
"17/10/02","12:50",0.4,20.8,93.5,1008.3,263.8,0.6,1.1,239.7,0.01,19.8,21.2,"12:48:40",1
"17/10/02","13:00",0.6,20.7,93.6,1008.1,312.1,0.3,1.1,335.1,0.01,19.7,21.2,"12:52:48",1
"17/10/02","13:10",0.4,20.8,93.9,1008.6,277.4,0.3,0.8,259.6,0.02,19.8,21.2,"13:06:56",1
"17/10/02","13:20",0.4,20.7,93.9,1007.8,309.5,0.7,1.3,323.9,0.02,19.7,21.2,"13:16:32",1
"17/10/02","13:30",0.2,20.6,94.1,1007.6,334.8,0.6,1.8,342.8,0.02,19.7,21.2,"13:23:20",1
"17/10/02","13:40",0.4,20.6,94.0,1007.6,332.5,0.6,1.6,347.1,0.02,19.6,21.1,"13:30:40",1
"17/10/02","13:50",0.2,20.6,94.4,1007.6,284.9,0.3,0.9,258.5,0.03,19.7,21.0,"13:47:20",1
"17/10/02","14:00",0.4,20.5,94.2,1007.4,255.6,0.6,1.4,238.1,0.02,19.6,21.2,"13:53:44",1
"17/10/02","14:10",0.0,20.6,94.4,1007.4,296.8,0.6,1.1,356.0,0.03,19.7,21.2,"14:01:44",1
"17/10/02","14:20",0.2,20.5,94.5,1007.1,281.4,0.5,1.1,262.0,0.01,19.6,21.2,"14:10:48",1
"17/10/02","14:30",0.4,20.5,94.6,1007.1,247.7,0.5,1.3,235.3,0.00,19.6,21.2,"14:25:36",1
"17/10/02","14:40",0.6,20.5,94.8,1007.1,293.2,0.6,1.2,309.1,0.01,19.7,21.2,"14:30:56",1
"17/10/02","14:50",0.4,20.5,94.9,1006.9,332.9,0.6,1.4,343.6,0.01,19.7,21.1,"14:41:52",1
"17/10/02","15:00",0.2,20.5,94.9,1006.7,295.8,0.2,0.6,303.2,0.01,19.7,21.2,"14:59:20",1
"17/10/02","15:10",0.4,20.6,94.9,1006.9,296.2,0.3,0.8,316.5,0.02,19.8,21.2,"15:00:40",1
"17/10/02","15:20",0.6,20.6,95.0,1006.4,302.8,0.3,1.1,313.7,0.03,19.8,21.2,"15:11:44",1
"17/10/02","15:30",0.0,20.6,94.9,1006.4,271.6,0.6,1.1,243.3,0.02,19.8,21.3,"15:23:36",1
"17/10/02","15:40",0.0,20.6,94.9,1006.2,344.4,0.5,1.1,338.0,0.00,19.8,21.2,"15:35:52",1
"17/10/02","15:50",0.2,20.6,95.0,1006.0,246.6,0.1,0.8,310.1,0.01,19.8,21.2,"15:43:20",1
"17/10/02","16:00",0.0,20.7,95.0,1005.7,273.7,0.5,1.0,332.5,0.02,19.9,21.2,"15:59:44",1
"17/10/02","16:10",0.0,20.8,95.0,1005.7,283.6,0.7,1.0,319.9,0.00,20.0,21.3,"16:00:08",1
"17/10/02","16:20",0.0,20.6,95.0,1005.7,266.9,0.7,1.2,256.7,0.00,19.8,21.2,"16:16:00",1
"17/10/02","16:30",0.2,20.5,95.2,1006.0,278.6,0.7,1.6,302.8,0.00,19.7,21.1,"16:26:40",1
"17/10/02","16:40",0.2,20.5,95.3,1006.0,336.7,0.6,1.2,353.6,0.00,19.8,21.2,"16:36:08",1
"17/10/02","16:50",0.4,20.4,95.3,1006.2,283.9,0.5,0.9,321.4,0.00,19.7,21.2,"16:47:36",1
"17/10/02","17:00",0.6,20.3,95.5,1006.0,310.3,0.7,1.6,320.3,0.00,19.6,21.3,"16:55:12",1
"17/10/02","17:10",0.2,20.3,95.6,1006.0,297.6,0.6,1.0,238.4,0.00,19.6,21.2,"17:09:44",1
"17/10/02","17:20",1.0,20.2,95.6,1005.5,288.8,0.5,1.2,276.5,0.00,19.5,21.3,"17:19:36",1
"17/10/02","17:30",0.6,20.1,95.8,1005.5,278.6,0.7,1.2,303.7,0.00,19.4,21.2,"17:21:36",1
"17/10/02","17:40",0.4,20.1,95.9,1005.7,282.9,0.8,1.3,266.0,0.00,19.5,21.2,"17:31:52",1
"17/10/02","17:50",0.4,20.0,96.0,1005.5,265.8,0.7,1.3,281.2,0.00,19.4,21.2,"17:47:44",1
"17/10/02","18:00",1.0,20.0,96.0,1005.5,324.5,0.7,1.4,344.2,0.00,19.4,21.1,"17:55:20",1
"17/10/02","18:10",0.8,20.0,96.1,1005.5,295.3,0.7,1.0,265.7,0.00,19.4,21.1,"18:03:36",1
"17/10/02","18:20",0.6,20.0,96.2,1005.7,322.3,0.7,1.2,339.2,0.00,19.4,21.1,"18:16:32",1
"17/10/02","18:30",0.6,20.0,96.3,1005.5,328.5,0.7,1.2,311.9,0.00,19.4,21.1,"18:20:02",1
"17/10/02","18:40",0.8,20.0,96.4,1005.7,277.6,0.7,1.3,318.6,0.00,19.4,20.9,"18:38:24",1
"17/10/02","18:50",1.0,20.0,96.4,1005.7,347.5,0.6,1.4,337.7,0.00,19.4,21.0,"18:41:04",1
"17/10/02","19:00",1.8,20.0,96.5,1005.7,263.0,0.7,1.2,245.9,0.00,19.5,21.0,"18:54:56",1
"17/10/02","19:10",1.8,20.0,96.5,1006.0,255.5,0.6,1.2,235.2,0.00,19.5,20.9,"19:00:24",1
"17/10/02","19:20",1.6,20.1,96.5,1006.0,274.8,0.8,1.6,235.9,0.00,19.6,21.0,"19:10:08",1
"17/10/02","19:30",1.6,20.1,96.5,1006.2,284.2,0.6,1.2,238.0,0.00,19.6,21.0,"19:29:28",1
"17/10/02","19:40",1.4,20.1,96.6,1006.4,293.9,0.6,1.2,240.9,0.00,19.6,20.8,"19:30:16",1
"17/10/02","19:50",1.2,20.1,96.6,1006.2,345.9,0.6,1.0,339.5,0.00,19.6,20.9,"19:40:40",1
"17/10/02","20:00",1.2,20.1,96.7,1006.2,299.8,0.8,1.7,315.4,0.00,19.6,21.0,"19:56:32",1
"17/10/02","20:10",1.0,20.1,96.7,1006.2,226.5,0.2,0.5,199.9,0.00,19.6,20.9,"20:04:16",1
"17/10/02","20:20",1.0,20.0,96.8,1005.7,246.9,0.2,0.5,256.0,0.00,19.5,20.9,"20:13:04",1
"17/10/02","20:30",0.6,20.1,96.8,1006.0,348.9,0.3,0.9,346.0,0.00,19.6,21.1,"20:22:16",1
"17/10/02","20:40",0.6,20.1,96.9,1006.0,269.2,0.6,1.4,232.9,0.00,19.6,21.0,"20:32:16",1
"17/10/02","20:50",0.8,20.1,96.9,1006.0,337.3,0.5,1.2,323.0,0.00,19.6,21.1,"20:40:40",1
"17/10/02","21:00",0.6,20.1,96.9,1006.0,277.7,0.3,0.8,238.8,0.00,19.6,20.8,"20:55:12",1
"17/10/02","21:10",0.6,20.1,97.0,1005.7,311.4,0.6,1.0,241.5,0.00,19.6,20.9,"21:08:16",1
"17/10/02","21:20",0.6,20.1,97.0,1005.5,302.3,0.7,1.1,244.0,0.00,19.6,20.8,"21:12:08",1
"17/10/02","21:30",0.2,20.1,97.0,1006.0,326.7,0.8,2.0,337.6,0.00,19.6,20.9,"21:26:56",1
"17/10/02","21:40",0.2,20.1,97.0,1006.0,280.9,0.6,1.0,269.7,0.00,19.6,20.8,"21:35:36",1
"17/10/02","21:50",0.6,20.1,97.1,1005.5,226.8,0.7,1.6,209.0,0.00,19.7,20.7,"21:45:12",1
"17/10/02","22:00",0.6,20.1,97.1,1005.7,305.5,0.5,0.9,336.7,0.00,19.7,20.9,"21:58:00",1
"17/10/02","22:10",0.6,20.1,97.1,1005.7,344.6,0.7,1.7,343.4,0.00,19.7,20.8,"22:06:40",1
"17/10/02","22:20",0.4,20.1,97.1,1005.2,318.2,0.6,1.2,328.8,0.00,19.7,20.9,"22:18:48",1
"17/10/02","22:30",0.2,20.1,97.2,1005.5,237.7,0.6,1.1,244.6,0.00,19.7,21.0,"22:21:20",1
"17/10/02","22:40",0.2,20.2,97.2,1005.5,330.4,1.1,2.0,336.2,0.00,19.8,20.9,"22:34:16",1
"17/10/02","22:50",0.0,20.2,97.2,1005.2,343.5,0.6,1.4,327.4,0.00,19.8,20.8,"22:44:24",1
"17/10/02","23:00",0.0,20.1,97.3,1005.2,311.5,0.7,2.0,312.8,0.00,19.7,20.8,"22:57:44",1
"17/10/02","23:10",0.2,20.2,97.3,1005.0,347.1,0.8,1.6,336.7,0.00,19.8,21.0,"23:02:16",1
"17/10/02","23:20",0.0,20.2,97.3,1005.0,338.5,0.7,1.4,334.8,0.00,19.8,20.9,"23:19:28",1
"17/10/02","23:30",0.2,20.2,97.3,1005.0,274.4,0.5,1.3,337.4,0.00,19.8,20.8,"23:20:24",1
"17/10/02","23:40",0.0,20.2,97.3,1005.0,270.0,0.6,1.2,341.8,0.00,19.8,20.8,"23:38:32",1
"17/10/02","23:50",0.0,20.2,97.4,1004.8,290.2,0.5,0.8,329.8,0.00,19.8,20.8,"23:40:08",1
"17/10/02","24:00",0.0,20.3,97.3,1004.8,297.7,0.7,1.3,323.0,0.00,19.9,20.8,"23:59:52",1
